[[{"header":{"parameterUnit":"m.s-1","parameterCategory":1,"la1":30.2991,"la2":30.254,"lo1":-89.0895,"lo2":-89.0444,"dy":0.0017,"dx":0.0017,"nx":28,"ny":28,"refTime":"2025-11-22T09:00:00:Z","depth":0,"parameterNumber":2,"parameterNumberName":"U-component_of_WINDS"},"data":[0,0,0,0,0,0,0,0,0,0,0,0,0,0,0,0,0,0,0,0,0,0,0,0,0,0,0,0,0,0,0,0,0,0,0,0,0,0,0,0,0,0,0,0,0,0,0,0,0,0,0,0,0,0,0,0,0,0,1.4164,1.4165,0,1.424,1.4241,1.4242,1.4228,1.4226,1.4225,1.4224,1.4304,1.4307,1.431,0,0,0,0,0,0,0,0,0,0,0,0,0,1.4007,1.401,1.4164,1.4165,1.4166,1.424,1.4241,1.4242,1.4228,1.4226,1.4225,1.4223,1.4302,1.4306,1.4311,0,0,0,0,0,0,0,0,0,0,0,0,0,1.4079,1.4011,1.4164,1.4167,1.4168,1.424,1.4241,1.4243,1.4228,1.4226,1.4224,1.4222,1.4301,1.4306,1.4311,1.4384,0,0,1.4327,1.4329,0,0,0,0,0,0,0,0,1.4075,1.4084,1.4166,1.4167,1.4169,1.4222,1.4215,1.429,1.4229,1.4206,1.4224,1.4221,1.4278,1.4285,1.4304,1.4388,1.4391,1.4327,1.433,1.4333,1.4334,0,0,0,0,0,0,0,1.407,1.4081,1.4194,1.4167,1.4169,1.4166,1.4174,1.4229,1.4253,1.4207,1.4207,1.4216,1.4279,1.4299,1.4306,1.4392,1.4327,1.4332,1.4335,1.4337,1.4542,1.4544,0,0,0,0,0,0,1.4063,1.4077,1.4192,1.4196,1.4116,1.4171,1.4179,1.4207,1.4252,1.4257,1.4217,1.4215,1.4291,1.43,1.4309,1.4398,1.4332,1.4337,1.434,1.4539,1.4542,1.4545,0,0,0,0,0,0,1.406,1.4074,1.4189,1.4137,1.4151,1.4175,1.4207,1.421,1.423,1.426,1.4264,1.4234,1.429,1.4301,1.4366,1.44,1.434,1.4344,1.4537,1.454,1.4544,1.4577,0,0,0,0,0,0,1.4055,1.4072,1.41,1.4137,1.4154,1.4244,1.4209,1.4213,1.4239,1.4236,1.4276,1.4281,1.4289,1.4358,1.4371,1.4406,1.4348,1.4534,1.4538,1.4543,1.4573,1.4581,1.4588,0,0,0,0,0,1.405,1.4106,1.4101,1.4115,1.4188,1.4246,1.4255,1.4263,1.4242,1.427,1.4289,1.428,1.4395,1.4365,1.4379,1.4417,1.4531,1.4537,1.4542,1.4569,1.4579,1.4588,0,0,0,0,0,0,1.4072,1.4111,1.4106,1.4176,1.4207,1.4243,1.4278,1.4274,1.4312,1.4308,1.4318,1.4327,1.4392,1.4411,1.4377,1.4491,1.446,1.4469,1.4476,1.4486,1.4493,1.4487,1.4353,0,0,0,0,0,1.4084,1.4127,1.4159,1.4218,1.4234,1.4254,1.4279,1.4283,1.4316,1.433,1.4353,1.4387,1.4431,1.4459,1.4501,1.4575,1.4585,1.4609,1.4616,1.4622,1.463,1.4672,1.4683,1.4562,1.4562,1.4562,0,0,1.4111,1.4138,1.4165,1.4223,1.4248,1.4293,1.4265,1.4313,1.4347,1.4337,1.4399,1.4418,1.4456,1.4526,1.4558,1.4544,1.4665,1.4629,1.4634,1.4638,1.4678,1.469,1.47,1.4566,1.4565,1.4565,0,0,1.4184,1.4208,1.426,1.4286,1.4324,1.4337,1.435,1.4387,1.4399,1.4461,1.4455,1.4496,1.4571,1.4599,1.4623,1.4708,1.4701,1.4721,1.4762,1.4803,1.4812,1.4821,1.4852,1.4863,1.4728,1.4729,1.4729,0,1.4212,1.4279,1.4287,1.4336,1.4363,1.4356,1.441,1.4435,1.4485,1.4504,1.4487,1.4582,1.4607,1.4684,1.4705,1.4724,1.474,1.4717,1.481,1.4819,1.4827,1.4857,1.4868,1.4731,1.4731,1.473,1.473,0,1.4313,1.436,1.4397,1.4446,1.4477,1.4528,1.4544,1.4575,1.4577,1.4592,1.4657,1.4687,1.4735,1.4754,1.4756,1.4832,1.4822,1.4808,1.4777,1.484,1.4869,1.488,1.4734,1.4733,1.4733,1.4732,0,0,1.4399,1.4453,1.4467,1.449,1.4533,1.4569,1.4621,1.4668,1.4695,1.473,1.4774,1.4839,1.4827,1.4854,1.4859,1.4895,1.4962,1.4877,1.4878,1.4892,1.5049,1.5059,1.5072,1.4958,1.496,1.4962,1.5046,0,1.4476,1.4566,1.4576,1.4657,1.4701,1.4696,1.4742,1.4773,1.479,1.483,1.4848,1.4894,1.4874,1.489,1.4926,1.4946,1.4994,1.494,1.5,1.5002,1.499,1.5087,1.5098,1.5176,1.5057,1.5059,1.506,0,1.4576,1.4615,1.4701,1.4739,1.4758,1.4798,1.4843,1.4882,1.4919,1.4928,1.4959,1.4961,1.5015,1.4983,1.5059,1.5023,1.5048,1.5062,1.5066,1.5071,1.5035,1.5096,1.52,1.5212,1.5077,1.5076,1.5075,0,1.4631,1.4705,1.4766,1.4786,1.4832,1.4861,1.4882,1.4916,1.4945,1.4985,1.5003,1.5049,1.5074,1.511,1.5125,1.51,1.52,1.5169,1.5211,1.521,1.5231,1.523,1.5342,1.5248,1.5248,1.5247,1.5247,0,1.4715,1.4768,1.4792,1.4829,1.4889,1.49,1.4959,1.4979,1.501,1.5052,1.5051,1.5091,1.5107,1.515,1.5162,1.5224,1.5235,1.5245,1.5247,1.5245,1.5244,1.5261,1.5256,1.525,1.525,1.5249,1.5249,0,1.4786,1.4804,1.4871,1.491,1.4921,1.4963,1.4997,1.5034,1.505,1.5104,1.5117,1.5143,1.5193,1.5211,1.5272,1.528,1.5352,1.535,1.534,1.534,1.5381,1.5377,1.5508,1.5526,1.542,1.5421,1.5422,0,1.4838,1.4879,1.4923,1.4951,1.4973,1.5018,1.5047,1.5061,1.5092,1.5138,1.517,1.522,1.5261,1.5342,1.5367,1.5414,1.5413,1.5456,1.542,1.5417,1.5415,1.5412,1.5417,1.5463,1.5464,1.5465,1.5465,0,1.4929,1.4937,1.4979,1.5025,1.506,1.5097,1.5132,1.5156,1.5175,1.521,1.5261,1.5293,1.5356,1.5407,1.5456,1.5478,1.5476,1.5477,1.5489,1.5486,1.5479,1.5484,1.5358,1.5473,1.5472,1.5472,1.5471,1.5471,1.4993,1.5029,1.5066,1.5114,1.5142,1.5176,1.5213,1.5235,1.5278,1.533,1.5336,1.5392,1.543,1.5495,1.552,1.5565,1.5553,1.5571,1.5575,1.5579,1.5582,1.5472,1.5574,1.5574,1.5573,1.5573,1.5573,0,1.5084,1.5108,1.5152,1.5202,1.524,1.5234,1.5274,1.5306,1.5355,1.5391,1.5431,1.5492,1.5541,1.5571,1.5621,1.5651,1.5651,1.5664,1.5661,1.5667,1.559,1.5574,1.5663,1.5663,1.5663,1.5663,1.5663,1.5662,1.5136,1.5197,1.521,1.5286,1.531,1.5365,1.5388,1.542,1.5448,1.5516,1.5557,1.5576,1.5609,1.5662,1.5708,1.5715,1.5734,1.5747,1.5754,1.5681,1.5672,1.5663,1.5649,1.5751,1.5751,1.5827,1.5828,1.5829]},{"header":{"parameterUnit":"m.s-1","parameterCategory":1,"la1":30.2991,"la2":30.254,"lo1":-89.0895,"lo2":-89.0444,"dy":0.0017,"dx":0.0017,"nx":28,"ny":28,"refTime":"2025-11-22T09:00:00:Z","depth":0,"parameterNumber":3,"parameterNumberName":"V-component_of_WINDS"},"data":[0,0,0,0,0,0,0,0,0,0,0,0,0,0,0,0,0,0,0,0,0,0,0,0,0,0,0,0,0,0,0,0,0,0,0,0,0,0,0,0,0,0,0,0,0,0,0,0,0,0,0,0,0,0,0,0,0,0,0.7501,0.7501,0,0.7463,0.7462,0.7462,0.7441,0.7441,0.7441,0.7441,0.7401,0.74,0.7399,0,0,0,0,0,0,0,0,0,0,0,0,0,0.7555,0.7554,0.7501,0.7501,0.75,0.7463,0.7462,0.7462,0.7441,0.7441,0.7441,0.7441,0.7401,0.74,0.7398,0,0,0,0,0,0,0,0,0,0,0,0,0,0.7525,0.7554,0.7501,0.7486,0.7484,0.7463,0.7462,0.7461,0.7441,0.7441,0.7441,0.7441,0.7401,0.74,0.7398,0.7389,0,0,0.7393,0.7393,0,0,0,0,0,0,0,0,0.7527,0.7523,0.7488,0.7487,0.7485,0.7457,0.7466,0.7437,0.7441,0.7457,0.7441,0.7441,0.7419,0.7416,0.7409,0.7388,0.7386,0.7393,0.7392,0.7392,0.7391,0,0,0,0,0,0,0,0.7529,0.7525,0.7486,0.7488,0.7486,0.748,0.7475,0.746,0.7439,0.7456,0.7454,0.745,0.7418,0.7411,0.7408,0.7385,0.7393,0.7392,0.7391,0.739,0.7351,0.7351,0,0,0,0,0,0,0.7534,0.7527,0.7487,0.7485,0.7506,0.7479,0.7474,0.7466,0.7439,0.7435,0.745,0.7449,0.7413,0.741,0.7406,0.7392,0.7392,0.739,0.7389,0.7351,0.7351,0.7351,0,0,0,0,0,0,0.7535,0.7531,0.7489,0.7505,0.75,0.7478,0.7469,0.7465,0.7457,0.7435,0.7431,0.7447,0.7413,0.7409,0.7393,0.7391,0.7389,0.7388,0.7351,0.7351,0.7351,0.7365,0,0,0,0,0,0,0.7537,0.7531,0.7529,0.7505,0.7499,0.7477,0.7469,0.7464,0.7455,0.7453,0.743,0.7426,0.7413,0.7396,0.7392,0.7388,0.7387,0.7351,0.7351,0.7351,0.7365,0.7365,0.7366,0,0,0,0,0,0.7539,0.7535,0.7529,0.7524,0.7495,0.7477,0.7473,0.7458,0.7455,0.7451,0.7436,0.7427,0.7392,0.7394,0.7389,0.7386,0.7351,0.7351,0.7351,0.7364,0.7365,0.7366,0,0,0,0,0,0,0.7558,0.7531,0.7524,0.7513,0.7497,0.7474,0.7469,0.746,0.7445,0.7444,0.7425,0.742,0.7405,0.7394,0.7398,0.7374,0.737,0.7369,0.7382,0.7383,0.7384,0.7386,0.7386,0,0,0,0,0,0.7561,0.755,0.7526,0.7518,0.7511,0.7491,0.7483,0.7472,0.7455,0.7448,0.7433,0.7416,0.7401,0.7391,0.7376,0.7363,0.7356,0.7358,0.7358,0.7359,0.7358,0.7347,0.7347,0.735,0.735,0.735,0,0,0.7567,0.7551,0.7545,0.7521,0.7508,0.7495,0.7486,0.7473,0.7463,0.7446,0.743,0.7418,0.7398,0.7383,0.7375,0.7373,0.7356,0.7359,0.7359,0.7358,0.7347,0.7347,0.7347,0.735,0.735,0.735,0,0,0.7571,0.7558,0.7549,0.7535,0.7515,0.7502,0.75,0.7477,0.7468,0.7451,0.7438,0.7425,0.74,0.7385,0.7375,0.737,0.736,0.7366,0.7369,0.7359,0.7359,0.7358,0.7355,0.7354,0.7365,0.7365,0.7365,0,0.7581,0.7562,0.7545,0.7533,0.7522,0.7506,0.7495,0.7483,0.7459,0.7451,0.7448,0.7415,0.74,0.738,0.7379,0.7371,0.7367,0.7368,0.736,0.736,0.7359,0.7355,0.7354,0.7366,0.7365,0.7365,0.7365,0,0.7574,0.756,0.7555,0.7531,0.752,0.7509,0.7489,0.7479,0.7469,0.7455,0.7437,0.7419,0.7399,0.7393,0.7383,0.7371,0.7369,0.7364,0.736,0.736,0.7356,0.7354,0.7366,0.7366,0.7366,0.7366,0,0,0.759,0.7556,0.7554,0.7542,0.7518,0.7506,0.7493,0.7473,0.7464,0.7448,0.7435,0.7412,0.7406,0.7394,0.7382,0.7373,0.7368,0.7368,0.7367,0.7367,0.735,0.7354,0.7353,0.7361,0.7361,0.7361,0.7351,0,0.7589,0.7565,0.7549,0.7531,0.7517,0.75,0.7488,0.7471,0.7457,0.7443,0.7427,0.7411,0.7405,0.7397,0.7388,0.7371,0.7364,0.7371,0.7347,0.7347,0.7352,0.7351,0.7356,0.7348,0.735,0.735,0.7349,0,0.7586,0.7569,0.7549,0.7524,0.7518,0.7507,0.7486,0.7473,0.7452,0.7442,0.7428,0.7415,0.7398,0.7395,0.7371,0.7376,0.7365,0.7355,0.7354,0.7351,0.7348,0.7347,0.7345,0.7344,0.7347,0.7347,0.7348,0,0.7598,0.757,0.7554,0.7545,0.7515,0.7508,0.7495,0.7474,0.7462,0.7444,0.7435,0.7415,0.7403,0.7387,0.7368,0.7368,0.7345,0.7341,0.7335,0.7335,0.733,0.7331,0.7326,0.7325,0.7325,0.7325,0.7325,0,0.7598,0.7586,0.7559,0.7549,0.7534,0.7515,0.7501,0.7486,0.7467,0.7453,0.7437,0.7424,0.7401,0.7384,0.7369,0.7349,0.7345,0.7335,0.7331,0.7336,0.7337,0.7328,0.7328,0.7325,0.7325,0.7325,0.7325,0,0.7609,0.759,0.7571,0.7544,0.7537,0.7528,0.7504,0.7493,0.7477,0.7459,0.7454,0.7429,0.7409,0.7388,0.736,0.735,0.733,0.7326,0.7337,0.7335,0.733,0.733,0.7319,0.7315,0.7317,0.7317,0.7317,0,0.761,0.7601,0.7572,0.7562,0.7549,0.7533,0.752,0.75,0.7487,0.7461,0.7452,0.743,0.7412,0.7379,0.7358,0.7336,0.7329,0.7327,0.7326,0.733,0.7327,0.7328,0.7326,0.7327,0.7328,0.7328,0.7328,0,0.7614,0.7605,0.7588,0.7566,0.7552,0.7534,0.7516,0.7508,0.7484,0.747,0.7448,0.7434,0.7404,0.7382,0.7357,0.7342,0.733,0.7328,0.7325,0.733,0.7336,0.7331,0.7338,0.7328,0.7328,0.7328,0.7328,0.7328,0.7619,0.7609,0.7587,0.7568,0.7551,0.7534,0.7522,0.7504,0.7486,0.7461,0.745,0.7427,0.7404,0.7369,0.7354,0.7335,0.7332,0.7328,0.7327,0.7326,0.7326,0.734,0.733,0.733,0.733,0.733,0.733,0,0.7621,0.7605,0.7588,0.7562,0.7546,0.7537,0.7515,0.7502,0.7483,0.7463,0.7444,0.7418,0.7395,0.7372,0.7347,0.7336,0.733,0.733,0.7331,0.7327,0.7331,0.7336,0.7336,0.7336,0.7336,0.7336,0.7336,0.7336,0.762,0.7601,0.7589,0.7561,0.7545,0.7524,0.7512,0.7495,0.7478,0.745,0.7431,0.7416,0.7393,0.7367,0.7345,0.7338,0.7329,0.7331,0.7323,0.7327,0.7327,0.7327,0.733,0.7329,0.7329,0.7319,0.7319,0.7319]}]]